Regional Weather Roundup
Issued by NWS

Home | Current Version | Previous Version | Text Only | Print | Product List | Glossary On
Versions: 1 2 3 4 5 6 7 8 9 10 11 12 13 14 15 16 17 18 19 20 21 22 23 24 25 26 27 28 29 30 31 32 33 34 35 36 37 38 39 40 41 42 43 44 45 46 47 48 49 50
000
ASUS43 KFSD 300202
RWRSD

WEATHER ROUNDUP FOR SOUTH DAKOTA
NATIONAL WEATHER SERVICE SIOUX FALLS SD
900 PM CDT FRI APR 29 2016

NOTE: "FAIR" INDICATES FEW OR NO CLOUDS BELOW 12,000 FEET WITH NO
SIGNIFICANT WEATHER AND/OR OBSTRUCTIONS TO VISIBILITY.


SDZ001>005-009-010-012>017-300300-
NORTHWEST AND NORTH CENTRAL SOUTH DAKOTA

CITY           SKY/WX    TMP DP  RH WIND       PRES   REMARKS
BUFFALO          N/A     46  34  62 SE12      29.99R
FAITH            N/A     44  36  73 SE6       30.06R
MOBRIDGE       MOCLDY    53  39  59 E6        30.05R
$$

SDZ012>016-024>037-041>051-057-063-072>074-300300-
SOUTHWEST AND SOUTH CENTRAL SOUTH DAKOTA

CITY           SKY/WX    TMP DP  RH WIND       PRES   REMARKS
RAPID CTY ARPT CLOUDY    42  36  79 E9        30.04R
PIERRE         PTCLDY    45  38  76 E8        30.04S
CUSTER         FOG       32  30  92 NE13      29.98S VSB 1/4 WCI  22
ELLSWORTH AFB  CLOUDY    43  38  82 E7        30.03S
PHILIP         MOCLDY    42  37  82 NE7       30.04S
PINE RIDGE     CLOUDY    38  35  89 E12       29.99S
WINNER         CLOUDY    44  38  79 SE9       30.05R
$$

SDZ004>011-016>023-039-040-300300-
NORTHEAST SOUTH DAKOTA

CITY           SKY/WX    TMP DP  RH WIND       PRES   REMARKS
ABERDEEN       CLOUDY    48  39  71 SE6       30.09R
WATERTOWN      CLOUDY    49  39  68 NE8       30.07F
BROOKINGS      PTCLDY    46  40  79 E6        30.06S
SISSETON         N/A     51  39  63 S3        30.09S
$$

SDZ017-020-022-023-036>040-048>070-300300-
SOUTHEAST SOUTH DAKOTA

CITY           SKY/WX    TMP DP  RH WIND       PRES   REMARKS
SIOUX FALLS    CLOUDY    46  39  76 E8        30.04R
HURON          MOCLDY    46  41  82 NE6       30.06S
MITCHELL       CLOUDY    49  41  74 NE9       30.05S
YANKTON        CLOUDY    45  39  81 E7        30.03R
$$

ABBREVIATIONS USED IN REMARKS
   TC - TEMPERATURE IN CELSIUS
  WCI - WIND CHILL INDEX
   HX - HEAT INDEX
  VSB - VISIBILITY





USA.gov is the U.S. government's official web portal to all federal, state and local government web resources and services.